Regional Weather Roundup
Issued by NWS

Home | Current Version | Previous Version | Graphics & Text | Print | Product List | Glossary On
Versions: 1 2 3 4 5 6 7 8 9 10 11 12 13 14 15 16 17 18 19 20 21 22 23 24 25 26 27 28 29 30 31 32 33 34 35 36 37 38 39 40 41 42 43 44 45 46 47 48 49 50
764
ASUS43 KLOT 252103
RWRIL

ILLINOIS REGIONAL WEATHER ROUNDUP
NATIONAL WEATHER SERVICE CHICAGO/ROMEOVILLE IL
400 PM CDT SAT MAR 25 2017

NOTE: "FAIR" INDICATES FEW OR NO CLOUDS BELOW 12,000 FEET WITH NO
SIGNIFICANT WEATHER AND/OR OBSTRUCTIONS TO VISIBILITY.

* THESE STATIONS ARE NOT UNDER NWS QUALITY CONTROL. THEY ALSO MAY NOT
  REPORT WEATHER SUCH AS PRECIPITATION OR FOG.

ILZ001-002-007-009-015-016-024-252200-
NORTHWEST ILLINOIS

CITY           SKY/WX    TMP DP  RH WIND       PRES   REMARKS
MOLINE         CLOUDY    54  50  86 NE13      29.88F
STERLING*      CLOUDY    50  48  93 E18       29.93S
SAVANNA*       CLOUDY    46  44  93 NE15G21   29.94F
$$

ILZ003-004-008-010-011-017-018-252200-
NORTH CENTRAL ILLINOIS

CITY           SKY/WX    TMP DP  RH WIND       PRES   REMARKS
ROCKFORD       DRIZZLE   43  40  89 NE14      30.00S FOG
FREEPORT*      CLOUDY    42  41  96 NE17      30.00R
ROCHELLE*      CLOUDY    44  43  97 NE15      29.97S FOG
DE KALB*       LGT RAIN  43  42  99 E15       29.99S VSB 1
PERU*          CLOUDY    51  49  94 E16       29.93S FOG
$$

ILZ005-006-012>014-019>023-252200-
NORTHEAST ILLINOIS

CITY           SKY/WX    TMP DP  RH WIND       PRES   REMARKS
CHICAGO-OHARE  LGT RAIN  44  41  89 N12       29.99F FOG
CHICAGO-MIDWAY CLOUDY    48  46  93 NE12      29.98F FOG
AURORA         CLOUDY    46  43  89 NE12      29.97F FOG
LANSING*       RAIN      48  48  99 CALM      29.97R
JOLIET*        CLOUDY    51  49  94 NE7       29.97S FOG
WAUKEGAN       CLOUDY    39  39 100 NE9       30.03F FOG     WCI  33
DUPAGE AIRPORT LGT RAIN  43  43 100 NE12      29.98F VSB 3/4
WHEELING       CLOUDY    41  41 100 N10       30.02S
MORRIS*        CLOUDY    51  49  93 NE6       29.95S FOG
NORTHERLY ISL    N/A     44  43  96 N9          N/A
$$

LMZ740>746-252200-
SOUTHERN LAKE MICHIGAN

STATION/POSITION SKY/WX   TEMP    WIND        PRES    VSBY  WAVE
                          AIR SEA DIR/SP/G                  HT/PER
                          (F)     (DEG/KT/KT) (MB)    (MI)  (FT/S)
HARRISON CRIB                     350/ 11/ 12   N/A
BURNHAM HARBOR                    330/  8/ 11   N/A
CALUMET HARBOR             44     340/  8/  9 1014.3F
BURNS HARBOR               47      60/  7/  8 1014.9F
MICHIGAN CITY              60      80/ 13/ 16   N/A
$$

ILZ025>027-034>036-040-047-049-050-058-095>099-252200-
WEST-CENTRAL ILLINOIS

CITY           SKY/WX    TMP DP  RH WIND       PRES   REMARKS
QUINCY         CLOUDY    61  55  81 SE13      29.82F
GALESBURG*     CLOUDY    61  55  83 SE7       29.85S
MACOMB*        CLOUDY    60  55  83 SE12      29.87S
JACKSONVILLE*  CLOUDY    61  57  87 S9        29.85S
PITTSFIELD*    CLOUDY    63  58  84 SE10      29.83F
$$

ILZ028>032-037-038-041>044-048-051>054-059>061-252200-
CENTRAL ILLINOIS

CITY           SKY/WX    TMP DP  RH WIND       PRES   REMARKS
PONTIAC        CLOUDY    61  59  93 SE3       29.94S
BLOOMINGTON    LGT RAIN  59  57  93 E12       29.92S
DECATUR        CLOUDY    64  55  72 S13       29.89S
PEORIA           N/A     60  58  92 MISG      29.89S
LINCOLN*       RAIN      63  60  92 E7        29.89S
SPRINGFIELD    RAIN      62  58  86 SE6       29.87S FOG
TAYLORVILLE    NOT AVBL
$$

ILZ033-039-045-046-055>057-062-063-252200-
EAST-CENTRAL ILLINOIS

CITY           SKY/WX    TMP DP  RH WIND       PRES   REMARKS
CHAMPAIGN      CLOUDY    68  52  56 S18G29    29.91S
RANTOUL*       CLOUDY    68  56  65 S13       29.91F
MATTOON        CLOUDY    65  55  70 S12       29.90F
$$

ILZ079-100>102-252200-
SOUTHWEST ILLINOIS

CITY           SKY/WX    TMP DP  RH WIND       PRES   REMARKS
ALTON          CLOUDY    63  55  77 SE15G21   29.84F
BELLEVILLE     CLOUDY    62  62  99 SE12      29.83F
CAHOKIA*       PTSUNNY   65  59  81 SE16G24   29.82F
SPARTA*        CLOUDY    61  58  90 SE12G17   29.86F
$$

ILZ064>066-069>071-074>076-080>082-084>086-088>090-092>094-252200-
SOUTH-CENTRAL ILLINOIS

CITY           SKY/WX    TMP DP  RH WIND       PRES   REMARKS
CARBONDALE     LGT RAIN  62  60  93 SE12      29.87F
CAIRO*         CLOUDY    63  60  90 SE13      29.88F
EFFINGHAM*     LGT RAIN  65  58  76 SE8       29.91F
MARION         RAIN      63  63 100 S7        29.89F FOG
MT. VERNON     CLOUDY    62  59  90 SE5       29.89F
CENTRALIA*     CLOUDY    62  60  93 S13       29.88S
SALEM*         DRIZZLE   64  58  79 S13       29.88F
$$

ILZ067-068-072-073-078-083-087-091-252200-
SOUTHEAST ILLINOIS

CITY           SKY/WX    TMP DP  RH WIND       PRES   REMARKS
LAWRENCEVILLE  CLOUDY    70  54  56 S16       29.93S
FLORA*         CLOUDY    65  58  76 S12       29.90F
FAIRFIELD*     CLOUDY    65  57  75 SE6       29.89F
HARRISBURG*    CLOUDY    65  58  76 S18G29    29.91F
ROBINSON*      CLOUDY    68  54  59 S15       29.93S
CARMI*         LGT RAIN  63  58  86 SE12      29.92S
$$

ABBREVIATIONS USED IN REMARKS
   TC - TEMPERATURE IN CELSIUS
  WCI - WIND CHILL INDEX
   HX - HEAT INDEX
  VSB - VISIBILITY
$$





USA.gov is the U.S. government's official web portal to all federal, state and local government web resources and services.